Date,TemperatureHighF,TemperatureAvgF,TemperatureLowF,DewpointHighF,DewpointAvgF,DewpointLowF,HumidityHigh,HumidityAvg,HumidityLow,PressureMaxIn,PressureMinIn,WindSpeedMaxMPH,WindSpeedAvgMPH,GustSpeedMaxMPH,PrecipitationSumIn
2013-7-1,72.0,71.0,70.0,69.0,68.7,68.0,93,92,90,0.00,40.00,1,0,0,0.00
2013-7-2,85.0,74.9,67.0,79.0,71.0,66.0,96,88,72,0.00,40.00,15,4,0,0.00
2013-7-3,87.0,79.5,73.0,75.0,72.2,70.0,90,78,65,0.00,40.00,13,6,0,0.00
2013-7-4,90.0,81.8,73.0,77.0,72.7,70.0,92,75,59,0.00,40.00,14,5,0,0.00
2013-7-5,93.0,82.9,75.0,79.0,73.0,68.0,88,73,58,0.00,40.00,10,3,0,0.00
2013-7-6,90.0,80.4,73.0,77.0,70.2,66.0,88,72,48,0.00,40.00,8,2,0,0.00
2013-7-7,91.0,77.7,71.0,77.0,70.2,65.0,90,78,61,0.00,40.00,15,2,0,0.00
2013-7-8,89.0,76.5,72.0,75.0,68.2,-99.9,93,79,50,0.00,40.00,7,1,0,0.00
2013-7-9,82.0,72.5,70.0,77.0,69.9,65.0,95,91,70,0.00,40.00,6,0,0,0.00
2013-8-8,85.0,78.4,76.0,71.0,69.1,69.0,80,73,64,0.00,40.00,16,9,0,0.00
2013-8-9,81.0,74.5,72.0,77.0,71.5,67.0,96,90,81,0.00,40.00,13,4,0,0.00
2013-8-10,80.0,71.5,61.0,67.0,55.8,43.0,85,61,29,0.00,40.00,14,4,0,0.00
2013-8-11,82.0,67.9,54.0,62.0,52.8,45.0,81,60,40,0.00,40.00,8,1,0,0.00
2013-8-12,81.0,69.4,58.0,65.0,57.7,51.0,86,68,47,0.00,40.00,11,2,0,0.00
2013-8-13,77.0,68.2,64.0,71.0,61.4,-99.9,92,82,68,0.00,40.00,10,2,0,0.00
2013-8-14,72.0,60.3,54.0,58.0,48.7,-99.9,85,71,57,0.00,40.00,12,3,0,0.00
2013-8-15,77.0,58.0,52.0,61.0,36.0,-99.9,87,61,40,0.00,40.00,10,2,0,0.00
2013-8-16,81.0,66.0,55.0,64.0,51.1,-99.9,90,65,39,0.00,40.00,6,1,0,0.00
2013-8-17,82.0,68.6,56.0,65.0,56.6,52.0,88,67,39,0.00,40.00,4,0,0,0.00
2013-8-18,75.0,66.5,59.0,64.0,57.5,-99.9,90,75,67,0.00,40.00,6,0,0,0.00
2013-8-19,84.0,64.8,62.0,69.0,45.5,-99.9,94,75,44,0.00,40.00,7,1,0,0.00
2013-8-20,86.0,71.7,60.0,70.0,58.6,-99.9,91,68,45,0.00,40.00,9,1,0,0.00
2013-8-21,87.0,74.7,62.0,71.0,64.4,58.0,91,72,47,0.00,40.00,7,1,0,0.00
2013-8-22,88.0,75.2,66.0,72.0,66.6,61.0,90,75,51,0.00,40.00,11,3,0,0.00
2013-8-23,79.0,71.0,62.0,66.0,59.5,49.0,89,69,40,0.00,40.00,8,2,0,0.00
2013-8-24,82.0,66.0,54.0,61.0,51.9,47.0,87,62,32,0.00,40.00,7,1,0,0.00
2013-8-25,83.0,66.0,52.0,63.0,53.6,-99.9,89,69,42,0.00,40.00,10,2,0,0.00
2013-8-26,78.0,69.5,64.0,69.0,63.2,57.0,93,80,66,0.00,40.00,10,3,0,0.00
2013-8-27,83.0,72.5,68.0,74.0,69.6,67.0,96,90,69,0.00,40.00,4,1,0,0.00
2013-8-28,90.0,83.2,72.0,74.0,68.8,65.0,77,62,51,0.00,40.00,11,2,0,0.00
2013-8-29,84.0,73.4,65.0,69.0,65.9,62.0,92,78,60,0.00,40.00,9,1,0,0.00
2013-8-30,86.0,75.2,66.0,71.0,67.2,62.0,89,77,61,0.00,40.00,8,3,0,0.00
2013-8-31,81.0,73.1,70.0,76.0,69.5,67.0,95,88,77,0.00,40.00,11,3,0,0.00
2013-9-1,86.0,74.3,69.0,76.0,68.5,-99.9,97,85,66,0.00,40.00,5,0,0,0.00
2013-9-2,81.0,74.5,67.0,75.0,69.9,61.0,94,86,71,0.00,40.00,12,4,0,0.00
2013-9-3,78.0,68.6,61.0,68.0,62.3,52.0,95,81,56,0.00,40.00,8,1,0,0.00
2013-9-4,83.0,69.7,60.0,63.0,56.8,51.0,87,66,34,0.00,40.00,10,2,0,0.00
2013-9-5,73.0,65.2,55.0,59.0,50.4,39.0,81,61,29,0.00,40.00,11,4,0,0.00
2013-9-6,73.0,57.6,44.0,51.0,42.7,38.0,83,60,28,0.00,40.00,7,1,0,0.00
2013-9-7,74.0,61.9,49.0,59.0,52.1,44.0,88,71,48,0.00,40.00,8,1,0,0.00
2013-9-8,73.0,64.8,52.0,64.0,49.8,-99.9,84,63,33,0.00,40.00,14,4,0,0.00
2013-9-9,71.0,57.9,44.0,52.0,46.4,37.0,84,66,47,0.00,40.00,13,5,0,0.00
2013-9-10,81.0,68.6,61.0,74.0,63.2,52.0,93,83,69,0.00,40.00,14,7,0,0.00
2013-9-11,93.0,80.5,70.0,80.0,73.4,62.0,94,80,59,0.00,40.00,15,6,0,0.00
2013-9-12,83.0,71.8,68.0,75.0,69.1,66.0,96,91,74,0.00,40.00,10,3,0,0.00
2013-9-13,71.0,63.1,55.0,67.0,60.3,48.0,96,90,77,0.00,40.00,11,2,0,0.00
2013-9-14,64.0,55.8,51.0,52.0,47.3,42.0,82,73,60,0.00,40.00,8,3,0,0.00
2013-9-15,68.0,53.3,43.0,55.0,43.5,-99.9,89,73,59,0.00,40.00,7,2,0,0.00
2013-9-16,69.0,56.7,45.0,58.0,50.9,41.0,88,81,67,0.00,40.00,10,2,0,0.00
2013-9-17,68.0,49.3,40.0,48.0,41.5,37.0,90,76,43,0.00,40.00,6,1,0,0.00
2013-9-18,54.0,43.1,41.0,41.0,39.8,39.0,91,87,80,0.00,40.00,0,0,0,0.00
2013-9-19,80.0,59.5,46.0,60.0,50.3,43.0,91,73,42,0.00,40.00,5,1,0,0.00
2013-9-20,81.0,63.3,49.0,63.0,53.4,47.0,92,72,45,0.00,40.00,10,2,0,0.00
2013-9-21,73.0,65.2,58.0,62.0,58.0,52.0,89,78,65,0.00,40.00,23,11,0,0.00
2013-9-22,66.0,57.8,51.0,62.0,48.5,-99.9,93,74,54,0.00,40.00,14,5,0,0.00
2013-9-23,63.0,51.6,43.0,48.0,40.9,37.0,80,67,49,0.00,40.00,11,4,0,0.00
2013-9-24,70.0,53.9,42.0,49.0,41.7,34.0,81,65,42,0.00,40.00,13,4,0,0.00
2013-9-25,75.0,57.9,44.0,55.0,47.1,39.0,87,68,47,0.00,40.00,4,0,0,0.00
2013-9-26,67.0,57.1,49.0,53.0,48.3,45.0,87,73,54,0.00,40.00,13,3,0,0.00
2013-9-27,62.0,54.3,44.0,54.0,47.6,41.0,89,78,68,0.00,40.00,9,1,0,0.00
2013-9-28,77.0,55.9,45.0,61.0,49.5,43.0,92,80,47,0.00,40.00,4,0,0,0.00
2013-9-29,75.0,57.6,45.0,62.0,47.5,-99.9,92,74,35,0.00,40.00,7,1,0,0.00
2013-9-30,76.0,59.9,50.0,60.0,51.0,46.0,88,74,44,0.00,40.00,8,1,0,0.00
2013-10-1,64.0,61.6,53.0,53.0,52.2,48.0,83,70,65,0.00,40.00,0,0,0,0.00
2013-10-2,80.0,65.0,54.0,68.0,57.1,49.0,94,77,51,0.00,40.00,9,1,0,0.00
2013-10-3,76.0,61.5,49.0,58.0,50.1,44.0,87,67,46,0.00,40.00,7,1,0,0.00
2013-10-4,63.0,59.7,57.0,60.0,56.1,52.0,91,88,80,0.00,40.00,4,0,0,0.00
2013-10-5,65.0,59.3,56.0,57.0,54.6,53.0,90,84,73,0.00,40.00,6,1,0,0.00
2013-10-6,63.0,57.4,52.0,61.0,54.2,49.0,94,89,83,0.00,40.00,16,5,0,0.00
2013-10-7,75.0,64.6,55.0,67.0,60.5,50.0,92,86,75,0.00,40.00,24,9,0,0.00
2013-10-8,68.0,55.8,47.0,49.0,44.3,38.0,82,66,41,0.00,40.00,12,2,0,0.00
2013-10-9,67.0,48.6,40.0,47.0,40.4,37.0,89,74,45,0.00,40.00,3,0,0,0.00
2013-10-10,59.0,49.8,40.0,53.0,43.9,37.0,90,80,67,0.00,40.00,6,0,0,0.00
2013-10-11,74.0,58.7,50.0,56.0,48.2,42.0,89,70,38,0.00,40.00,6,0,0,0.00
2013-10-12,76.0,55.4,43.0,58.0,46.4,40.0,87,73,50,0.00,40.00,16,4,0,0.00
2013-10-13,70.0,59.2,54.0,53.0,46.4,-99.9,78,65,48,0.00,40.00,11,4,0,0.00
2013-10-14,69.0,57.9,49.0,56.0,49.8,44.0,86,74,62,0.00,40.00,10,3,0,0.00
2013-10-15,71.0,63.0,57.0,60.0,55.4,51.0,85,76,65,0.00,40.00,9,2,0,0.00
2013-10-17,73.0,63.1,57.0,59.0,52.5,47.0,87,70,43,0.00,40.00,10,2,0,0.00
2013-10-18,68.0,58.3,54.0,58.0,50.6,37.0,89,77,37,0.00,40.00,12,4,0,0.00
2013-10-19,64.0,51.7,43.0,51.0,43.0,37.0,84,72,46,0.00,40.00,12,5,0,0.00
2013-10-20,61.0,52.5,49.0,46.0,32.4,-99.9,73,53,35,0.00,40.00,11,5,0,0.00
2013-10-21,67.0,52.3,44.0,49.0,41.3,35.0,76,66,37,0.00,40.00,18,7,0,0.00
2013-10-22,59.0,51.0,43.0,47.0,39.3,31.0,74,64,58,0.00,40.00,13,6,0,0.00
2013-10-23,55.0,46.4,38.0,41.0,36.0,30.0,79,67,57,0.00,40.00,6,1,0,0.00
2013-10-24,53.0,42.8,34.0,34.0,30.7,27.0,80,63,41,0.00,40.00,7,3,0,0.00
2013-10-25,48.0,40.9,37.0,36.0,33.1,29.0,82,73,58,0.00,40.00,14,3,0,0.00
2013-10-26,53.0,45.8,35.0,36.0,31.0,28.0,81,57,44,0.00,40.00,14,5,0,0.00
2013-10-27,53.0,42.1,34.0,36.0,23.9,-99.9,71,56,43,0.00,40.00,13,3,0,0.00
2013-10-29,49.0,45.4,33.0,32.0,25.6,22.0,67,47,34,0.00,40.00,8,3,0,0.00
2013-10-30,55.0,40.8,35.0,43.0,30.4,24.0,76,66,61,0.00,40.00,5,1,0,0.00
2013-10-31,59.0,50.6,33.0,58.0,48.2,29.0,95,91,85,0.00,40.00,16,10,0,0.00
2013-11-1,71.0,61.5,52.0,61.0,53.1,39.0,94,76,41,0.00,40.00,24,13,0,0.00
2013-11-2,59.0,51.8,41.0,49.0,44.0,36.0,85,74,64,0.00,40.00,9,1,0,0.00
2013-11-3,44.0,37.3,30.0,34.0,22.8,-99.9,74,61,47,0.00,40.00,14,6,0,0.00
2013-11-4,44.0,38.2,29.0,25.0,18.4,14.0,65,45,32,0.00,40.00,15,6,0,0.00
2013-11-5,50.0,38.8,26.0,36.0,27.4,16.0,69,63,52,0.00,40.00,8,3,0,0.00
2013-11-6,60.0,55.3,45.0,48.0,43.7,36.0,75,64,60,0.00,40.00,18,12,0,0.00
2013-11-7,56.0,49.7,41.0,48.0,43.0,33.0,85,77,69,0.00,40.00,15,7,0,0.00
2013-11-8,46.0,38.6,34.0,38.0,29.0,25.0,76,68,60,0.00,40.00,16,5,0,0.00
2013-11-9,44.0,37.8,38.0,32.0,22.0,-99.9,72,62,59,0.00,40.00,9,5,0,0.00
2013-11-10,52.0,44.2,40.0,38.0,31.2,28.0,70,60,50,0.00,40.00,12,7,0,0.00
2013-11-11,49.0,43.7,38.0,32.0,28.7,26.0,70,56,45,0.00,40.00,13,5,0,0.00
2013-11-12,45.0,33.6,27.0,32.0,21.4,15.0,70,60,52,0.00,40.00,16,8,0,0.00
2013-11-19,41.0,37.0,30.0,25.0,21.3,17.0,63,52,45,0.00,40.00,17,10,0,0.00
2013-11-20,40.0,26.8,23.0,18.0,14.4,13.0,65,59,33,0.00,40.00,9,2,0,0.00
2013-11-21,45.0,29.5,18.0,29.0,18.5,10.0,70,63,52,0.00,40.00,9,1,0,0.00
2013-11-22,47.0,42.6,40.0,45.0,34.9,28.0,90,74,58,0.00,40.00,5,1,0,0.00
2013-11-23,45.0,33.0,25.0,41.0,18.8,-99.9,87,64,45,0.00,40.00,19,12,0,0.00
2013-11-24,27.0,21.5,18.0,15.0,6.4,2.0,70,52,38,0.00,40.00,16,9,0,0.00
2013-11-25,32.0,20.2,14.0,13.0,5.6,1.0,58,52,45,0.00,40.00,13,4,0,0.00
2013-12-2,40.0,34.9,31.0,33.0,29.6,26.0,82,80,75,0.00,40.00,4,1,0,0.00
2013-12-3,42.0,32.4,28.0,38.0,27.6,24.0,88,82,70,0.00,40.00,3,0,0,0.00
2013-12-4,45.0,37.6,25.0,36.0,30.1,21.0,82,74,65,0.00,40.00,3,0,0,0.00
2013-12-5,52.0,43.8,33.0,50.0,39.3,26.0,90,83,76,0.00,40.00,14,8,0,0.00
2013-12-6,52.0,40.4,33.0,50.0,36.2,26.0,92,84,74,0.00,40.00,8,3,0,0.00
2013-12-7,38.0,30.8,29.0,29.0,19.0,-99.9,86,70,67,0.00,40.00,10,4,0,0.00
2013-12-8,32.0,29.5,27.0,22.0,20.0,19.0,71,67,63,0.00,40.00,5,1,0,0.00
2013-12-9,36.0,29.8,26.0,33.0,24.9,18.0,90,81,69,0.00,40.00,13,5,0,0.00
2013-12-10,33.0,28.2,22.0,30.0,23.5,15.0,93,82,74,0.00,40.00,10,3,0,0.00
2013-12-11,32.0,28.8,24.0,20.0,17.8,14.0,68,63,54,0.00,40.00,7,3,0,0.00
2013-12-12,26.0,19.8,15.0,11.0,7.7,5.0,71,60,51,0.00,40.00,8,3,0,0.00
2013-12-19,39.0,32.3,25.0,29.0,23.5,20.0,79,70,65,0.00,40.00,6,2,0,0.00
2013-12-20,44.0,40.9,34.0,33.0,30.9,25.0,70,67,63,0.00,40.00,12,4,0,0.00
2013-12-21,49.0,43.8,42.0,41.0,30.4,-99.9,83,63,60,0.00,40.00,11,7,0,0.00
2013-12-22,42.0,33.9,32.0,40.0,31.8,30.0,95,92,90,0.00,40.00,7,2,0,0.00
2013-12-23,46.0,41.6,34.0,44.0,38.9,29.0,93,89,79,0.00,40.00,11,2,0,0.00
2013-12-24,31.0,25.3,18.0,23.0,15.9,9.0,74,67,64,0.00,40.00,11,8,0,0.00
2013-12-25,21.0,18.4,17.0,8.0,5.6,4.0,66,56,53,0.00,40.00,8,1,0,0.00
2013-12-26,30.0,27.9,25.0,21.0,17.9,14.0,73,65,60,0.00,40.00,14,9,0,0.00
2013-12-27,34.0,27.3,23.0,24.0,19.9,15.0,78,73,66,0.00,40.00,6,1,0,0.00
2013-12-28,38.0,29.1,27.0,30.0,16.2,-99.9,75,68,67,0.00,40.00,13,6,0,0.00
2013-12-29,37.0,31.6,27.0,32.0,26.8,20.0,90,82,74,0.00,40.00,4,1,0,0.00
2013-12-30,34.0,29.5,13.0,32.0,26.8,6.0,92,89,71,0.00,40.00,13,5,0,0.00
2013-12-31,23.0,13.1,9.0,16.0,6.0,2.0,75,72,71,0.00,40.00,8,2,0,0.00
2014-1-1,25.0,16.9,12.0,17.0,8.3,5.0,71,68,63,0.00,40.00,11,1,0,0.00
2014-1-2,4.0,2.6,1.0,-2.0,-3.4,-5.0,76,75,74,0.00,40.00,9,4,0,0.00